• In Austria
  • List of Countries
  • For 7 days
  • Water Temperature
  • Satellite Maps
  • Weather Map
  • News
  • Weather Widgets
  • user-avatar
    Login

    Hourly Weather Andora

    Today, 17 February, Saturday

    Time Temperature Precipitation Wind Pressure Humidity
    00:00 +2°C° 0 mm 1 mps 625 mmHg 90%
    01:00 +2°C° 0 mm 1 mps 624 mmHg 89%
    02:00 +2°C° 0 mm 1 mps 624 mmHg 89%
    03:00 +2°C° 0 mm 1 mps 624 mmHg 89%
    04:00 +2°C° 0.2 mm 1 mps 624 mmHg 90%
    05:00 +2°C° 0.2 mm 1 mps 624 mmHg 90%
    06:00 +2°C° 0 mm 1 mps 624 mmHg 90%
    07:00 +2°C° 0.5 mm 1 mps 625 mmHg 90%
    08:00 +2°C° 0.5 mm 2 mps 625 mmHg 90%
    09:00 +3°C° 0.5 mm 2 mps 626 mmHg 90%
    10:00 +3°C° 0.2 mm 2 mps 626 mmHg 88%
    11:00 +3°C° 0.2 mm 2 mps 626 mmHg 87%
    12:00 +2°C° 0 mm 3 mps 626 mmHg 87%
    13:00 +2°C° 0.3 mm 3 mps 626 mmHg 86%
    14:00 +1°C° 0.3 mm 3 mps 626 mmHg 86%
    15:00 +1°C° 0.3 mm 3 mps 625 mmHg 85%
    16:00 0°C° 0.3 mm 3 mps 625 mmHg 86%
    17:00 0°C° 0.3 mm 3 mps 625 mmHg 87%
    18:00 -1°C° 0.3 mm 3 mps 625 mmHg 88%
    19:00 -2°C° 0.1 mm 3 mps 625 mmHg 87%
    20:00 -4°C° 0.1 mm 3 mps 625 mmHg 86%
    21:00 -5°C° 0.1 mm 3 mps 625 mmHg 84%
    22:00 -5°C° 0 mm 3 mps 625 mmHg 84%
    23:00 -6°C° 0 mm 3 mps 625 mmHg 85%

    Tomorrow, 18 February, Sunday

    Time Temperature Precipitation Wind Pressure Humidity
    00:00 -6°C° 0 mm 3 mps 625 mmHg 85%
    01:00 -6°C° 0 mm 3 mps 624 mmHg 85%
    02:00 -6°C° 0 mm 3 mps 624 mmHg 84%
    03:00 -7°C° 0 mm 3 mps 624 mmHg 84%
    04:00 -7°C° 0 mm 3 mps 624 mmHg 83%
    05:00 -7°C° 0 mm 3 mps 624 mmHg 83%
    06:00 -7°C° 0 mm 3 mps 624 mmHg 82%
    07:00 -6°C° 0 mm 3 mps 624 mmHg 77%
    08:00 -4°C° 0 mm 2 mps 625 mmHg 73%
    09:00 -2°C° 0 mm 2 mps 625 mmHg 68%
    10:00 -1°C° 0 mm 2 mps 625 mmHg 66%
    11:00 +1°C° 0 mm 2 mps 626 mmHg 63%
    12:00 +1°C° 0 mm 3 mps 626 mmHg 60%
    13:00 +1°C° 0 mm 3 mps 626 mmHg 61%
    14:00 +1°C° 0 mm 3 mps 625 mmHg 61%
    15:00 +1°C° 0 mm 3 mps 625 mmHg 62%
    16:00 +1°C° 0 mm 2 mps 624 mmHg 69%
    17:00 -2°C° 0 mm 2 mps 624 mmHg 76%
    18:00 -3°C° 0 mm 2 mps 623 mmHg 82%
    19:00 -4°C° 0 mm 2 mps 623 mmHg 83%
    20:00 -4°C° 0 mm 2 mps 623 mmHg 84%
    21:00 -5°C° 0 mm 2 mps 622 mmHg 85%
    22:00 -5°C° 0 mm 2 mps 622 mmHg 85%
    23:00 -5°C° 0 mm 2 mps 622 mmHg 86%

    Day after tomorrow, 19 February, Monday

    Time Temperature Precipitation Wind Pressure Humidity
    00:00 -5°C° 0 mm 2 mps 622 mmHg 86%
    01:00 -6°C° 0 mm 2 mps 621 mmHg 85%
    02:00 -6°C° 0 mm 2 mps 621 mmHg 84%
    03:00 -6°C° 0 mm 2 mps 621 mmHg 84%
    04:00 -6°C° 0 mm 2 mps 621 mmHg 82%
    05:00 -6°C° 0 mm 2 mps 621 mmHg 81%
    06:00 -6°C° 0 mm 2 mps 621 mmHg 79%
    07:00 -5°C° 0 mm 2 mps 621 mmHg 74%
    08:00 -3°C° 0 mm 2 mps 622 mmHg 69%
    09:00 -2°C° 0 mm 2 mps 623 mmHg 64%
    10:00 +1°C° 0 mm 2 mps 623 mmHg 61%
    11:00 +2°C° 0 mm 2 mps 623 mmHg 58%
    12:00 +3°C° 0 mm 2 mps 624 mmHg 55%
    13:00 +2°C° 0 mm 3 mps 623 mmHg 56%
    14:00 +2°C° 0 mm 3 mps 623 mmHg 58%
    15:00 +2°C° 0 mm 3 mps 623 mmHg 59%
    16:00 0°C° 0 mm 3 mps 622 mmHg 67%
    17:00 -2°C° 0 mm 2 mps 621 mmHg 76%
    18:00 -4°C° 0 mm 2 mps 621 mmHg 84%
    19:00 -4°C° 0 mm 2 mps 621 mmHg 85%
    20:00 -4°C° 0 mm 2 mps 621 mmHg 85%
    21:00 -5°C° 0 mm 3 mps 621 mmHg 86%
    22:00 -5°C° 0 mm 3 mps 621 mmHg 85%
    23:00 -5°C° 0 mm 3 mps 621 mmHg 84%

    20 February, Tuesday

    Time Temperature Precipitation Wind Pressure Humidity
    00:00 -5°C° 0 mm 3 mps 621 mmHg 83%
    01:00 -5°C° 0 mm 3 mps 621 mmHg 82%
    02:00 -5°C° 0 mm 3 mps 621 mmHg 82%
    03:00 -5°C° 0 mm 3 mps 620 mmHg 81%
    04:00 -5°C° 0 mm 3 mps 620 mmHg 81%
    05:00 -5°C° 0 mm 3 mps 620 mmHg 81%
    06:00 -5°C° 0 mm 3 mps 620 mmHg 82%
    07:00 -4°C° 0 mm 3 mps 621 mmHg 78%
    08:00 -2°C° 0 mm 3 mps 621 mmHg 75%
    09:00 -1°C° 0 mm 3 mps 622 mmHg 72%
    10:00 0°C° 0.1 mm 3 mps 622 mmHg 72%
    11:00 +1°C° 0.1 mm 3 mps 622 mmHg 71%
    12:00 +2°C° 0.1 mm 3 mps 622 mmHg 71%
    13:00 +2°C° 0.4 mm 3 mps 622 mmHg 72%
    14:00 +2°C° 0.4 mm 3 mps 621 mmHg 74%
    15:00 +2°C° 0.4 mm 3 mps 621 mmHg 76%
    16:00 +1°C° 0.8 mm 3 mps 620 mmHg 79%
    17:00 0°C° 0.8 mm 3 mps 620 mmHg 82%
    18:00 -1°C° 0.8 mm 3 mps 619 mmHg 85%
    19:00 -1°C° 0.5 mm 3 mps 619 mmHg 86%
    20:00 -1°C° 0.5 mm 3 mps 619 mmHg 86%
    21:00 -3°C° 0.5 mm 4 mps 619 mmHg 86%
    22:00 -3°C° 0.3 mm 4 mps 619 mmHg 86%
    23:00 -3°C° 0.3 mm 4 mps 619 mmHg 85%

    21 February, Wednesday

    Time Temperature Precipitation Wind Pressure Humidity
    00:00 -4°C° 0.3 mm 4 mps 618 mmHg 85%
    01:00 -4°C° 0.4 mm 4 mps 618 mmHg 85%
    02:00 -4°C° 0.4 mm 4 mps 617 mmHg 85%
    03:00 -4°C° 0.4 mm 4 mps 617 mmHg 85%
    04:00 -4°C° 0.5 mm 4 mps 617 mmHg 85%
    05:00 -5°C° 0.5 mm 4 mps 617 mmHg 85%
    06:00 -5°C° 0.5 mm 4 mps 616 mmHg 85%
    07:00 -5°C° 0.2 mm 4 mps 616 mmHg 82%
    08:00 -5°C° 0.2 mm 4 mps 617 mmHg 79%
    09:00 -5°C° 0.2 mm 4 mps 617 mmHg 76%
    10:00 -4°C° 0.1 mm 4 mps 617 mmHg 72%
    11:00 -4°C° 0.1 mm 4 mps 617 mmHg 68%
    12:00 -4°C° 0.1 mm 4 mps 617 mmHg 65%
    13:00 -4°C° 0.1 mm 4 mps 616 mmHg 65%
    14:00 -4°C° 0.1 mm 4 mps 616 mmHg 65%
    15:00 -4°C° 0.1 mm 4 mps 616 mmHg 65%
    16:00 -5°C° 0.1 mm 4 mps 615 mmHg 68%
    17:00 -7°C° 0.1 mm 4 mps 615 mmHg 72%
    18:00 -7°C° 0.1 mm 3 mps 615 mmHg 76%
    19:00 -8°C° 0.1 mm 3 mps 615 mmHg 76%
    20:00 -8°C° 0.1 mm 3 mps 615 mmHg 77%
    21:00 -8°C° 0.1 mm 3 mps 615 mmHg 78%
    22:00 -9°C° 0 mm 3 mps 614 mmHg 78%
    23:00 -9°C° 0 mm 3 mps 614 mmHg 78%

    22 February, Thursday

    Time Temperature Precipitation Wind Pressure Humidity
    00:00 -9°C° 0 mm 3 mps 614 mmHg 78%
    01:00 -10°C° 0 mm 3 mps 613 mmHg 78%
    02:00 -10°C° 0 mm 3 mps 613 mmHg 78%
    03:00 -12°C° 0 mm 3 mps 612 mmHg 78%
    04:00 -12°C° 0 mm 3 mps 612 mmHg 78%
    05:00 -12°C° 0 mm 3 mps 612 mmHg 78%
    06:00 -12°C° 0 mm 3 mps 612 mmHg 78%
    07:00 -10°C° 0 mm 3 mps 612 mmHg 74%
    08:00 -9°C° 0 mm 3 mps 613 mmHg 70%
    09:00 -8°C° 0 mm 3 mps 613 mmHg 66%
    10:00 -6°C° 0 mm 2 mps 613 mmHg 64%
    11:00 -5°C° 0 mm 2 mps 614 mmHg 61%
    12:00 -4°C° 0 mm 2 mps 614 mmHg 59%
    13:00 -4°C° 0 mm 2 mps 614 mmHg 60%
    14:00 -4°C° 0 mm 2 mps 613 mmHg 61%
    15:00 -4°C° 0 mm 2 mps 613 mmHg 62%
    16:00 -5°C° 0.1 mm 2 mps 613 mmHg 68%
    17:00 -6°C° 0.1 mm 2 mps 613 mmHg 74%
    18:00 -6°C° 0.1 mm 1 mps 613 mmHg 80%
    19:00 -7°C° 0.1 mm 1 mps 613 mmHg 82%
    20:00 -7°C° 0.1 mm 1 mps 613 mmHg 83%
    21:00 -8°C° 0.1 mm 1 mps 613 mmHg 85%
    22:00 -8°C° 0 mm 1 mps 613 mmHg 84%
    23:00 -8°C° 0 mm 1 mps 613 mmHg 83%
    Show more